Regional Weather Roundup
Issued by NWS

Home | Current Version | Previous Version | Text Only | Print | Product List | Glossary On
Versions: 1 2 3 4 5 6 7 8 9 10 11 12 13 14 15 16 17 18 19 20 21 22 23 24 25 26 27 28 29 30 31 32 33 34 35 36 37 38 39 40 41 42 43 44 45 46 47 48 49 50
000
ASUS42 KFFC 301403
RWRGA
WEATHER ROUNDUP FOR GEORGIA
NATIONAL WEATHER SERVICE PEACHTREE CITY GA
1000 AM EDT SUN AUG 30 2015

NOTE: "FAIR" INDICATES FEW OR NO CLOUDS BELOW 12,000 FEET WITH NO
SIGNIFICANT WEATHER AND/OR OBSTRUCTIONS TO VISIBILITY.

* = USE WITH CAUTION. THE STATIONS MARKED WITH AN ASTERISK MAY NOT
REPORT WEATHER SUCH AS PRECIPITATION, FOG, OR THUNDER AND ARE NOT
QUALITY CONTROLLED BY NWS.

THE REMARK "TC" DENOTES TEMPERATURE READING IN DEGREES CELSIUS.

GAZ001>058-301500-
NORTH GEORGIA

CITY           SKY/WX    TMP DP  RH WIND       PRES   REMARKS
ATLANTA        RAIN      66  64  94 CALM      30.15R FOG
ATHENS         LGT RAIN  68  64  87 E6        30.16R
CHAMBLEE       LGT RAIN  68  65  90 E3        30.15R FOG
PEACHTREE CITY LGT RAIN  68  67  96 CALM      30.13S FOG
ROME           CLOUDY    70  68  93 CALM      30.13R
WEST ATLANTA   LGT RAIN  69  66  90 VRB5      30.16R FOG
GAINESVILLE    CLOUDY    70  61  73 E7        30.18R
CARTERSVILLE   LGT RAIN  69  67  93 CALM      30.15R


CITY           SKY/WX    TMP DP  RH WIND       PRES   REMARKS
DALTON*        CLOUDY    70  68  94 N3        30.15R
LAWRENCEVILLE* LGT RAIN  70  59  68 E8        30.16R
MARIETTA       LGT RAIN  69  65  85 NE1       30.15R FOG
KENNESAW*      LGT RAIN  68  64  88 E5        30.17R FOG
BLAIRSVILLE*     N/A     67  56  68 CALM      30.20S
$$

GAZ059>098-102>109-301500-
CENTRAL GEORGIA

CITY           SKY/WX    TMP DP  RH WIND       PRES   REMARKS
AUGUSTA-BUSH   LGT RAIN  72  69  90 NW3       30.12R
AUGUSTA-DANIEL LGT RAIN  76  69  79 N3        30.13S
COLUMBUS       CLOUDY    74  71  91 E3        30.07F FOG
MACON          CLOUDY    71  69  93 NE3       30.10R FOG
ROBINS AFB     CLOUDY    71  70  96 NE6       30.09R


CITY           SKY/WX    TMP DP  RH WIND       PRES   REMARKS
LAGRANGE*      CLOUDY    76  76 100 E5        30.10S
SYLVANIA*      CLOUDY    75  74  99 CALM      30.12R
MILLEDGEVILLE* PTSUNNY   72  68  88 E5        30.11S
$$

GAZ099>101-110>166-301500-
SOUTH GEORGIA

CITY           SKY/WX    TMP DP  RH WIND       PRES   REMARKS
SAVANNAH       CLOUDY    76  73  91 NE6       30.10R
VALDOSTA       SUNNY     80  73  79 VRB3      30.06S
ALMA           PTSUNNY   77  73  87 NE3       30.08S
ST SIMONS      PTSUNNY   84  75  74 E7        30.05S HX  92
FT STEWART     CLOUDY    75  72  91 CALM      30.07R
ALBANY         CLOUDY    76  72  87 CALM      30.10R
HUNTER AFB     CLOUDY    76  76 100 NE3       30.07R
MOODY AFB      SUNNY     80  72  75 VRB2      30.06R
BRUNSWICK      PTSUNNY   81  73  78 NE5       30.07S


CITY           SKY/WX    TMP DP  RH WIND       PRES   REMARKS
BAINBRIDGE*    CLOUDY    77  73  88 CALM      30.08R
MOULTRIE*      CLOUDY    75  73  94 CALM      30.08S
VIDALIA*       CLOUDY    75  72  88 NE3       30.09F
WAYCROSS*      PTSUNNY   80  78  92 E5        30.07S
DOUGLAS*       MOSUNNY   79  72  78 CALM      30.08S
$$


USA.gov is the U.S. government's official web portal to all federal, state and local government web resources and services.